FW0153 Weather Reports


time (UTC)temp
F
wind
direction
speed
knots
gust
knots
rain 1hr
in
rain 24hr
in
rain mn
in
humidity
%
barometer
mb
20260509105505 74 45 11.3 0.0 0.00 0.00 0.00 93 1010.6
20260509105005 74 334 3.5 0.0 0.00 0.00 0.00 93 1010.6
20260509104505 74 32 3.5 0.0 0.00 0.00 0.00 93 1010.6
20260509104005 74 17 7.8 0.0 0.00 0.00 0.00 93 1010.3
20260509103505 74 60 3.5 0.0 0.00 0.00 0.00 94 1009.9
20260509103005 74 61 3.5 0.0 0.00 0.00 0.00 94 1009.6
20260509102504 74 205 7.8 0.0 0.00 0.00 0.00 94 1009.6
20260509102005 74 108 0.0 0.0 0.00 0.00 0.00 94 1009.6
20260509101505 74 22 0.0 0.0 0.00 0.00 0.00 94 1009.3
20260509101005 74 76 0.0 0.0 0.00 0.00 0.00 95 1008.9
20260509100505 74 129 0.0 0.0 0.00 0.00 0.00 95 1009.3
20260509100006 73 260 3.5 0.0 0.00 0.00 0.00 95 1008.9
20260509095711 73 103 3.5 0.0 0.00 0.00 0.00 95 1008.6
20260509095005 73 28 0.0 0.0 0.00 0.00 0.00 95 1008.6
20260509094505 73 339 3.5 0.0 0.00 0.00 0.00 94 1008.6
20260509094212 73 102 0.0 0.0 0.00 0.00 0.00 94 1008.6
20260509093505 73 101 0.0 0.0 0.00 0.00 0.00 94 1008.6
20260509093004 73 76 0.0 0.0 0.00 0.00 0.00 94 1008.6
20260509092505 73 83 0.0 0.0 0.00 0.00 0.00 94 1008.9
20260509092005 73 104 0.0 0.0 0.00 0.00 0.00 94 1008.9
20260509091505 73 17 0.0 0.0 0.00 0.00 0.00 94 1008.9
20260509091212 73 83 0.0 0.0 0.00 0.00 0.00 94 1008.6
20260509090505 73 111 0.0 0.0 0.00 0.00 0.00 94 1008.9
20260509090005 73 82 3.5 0.0 0.00 0.00 0.00 94 1008.6
20260509085711 73 71 7.8 0.0 0.00 0.00 0.00 94 1008.6
20260509085005 73 83 0.0 0.0 0.00 0.00 0.00 93 1008.9
20260509084505 73 100 0.0 0.0 0.00 0.00 0.00 93 1008.6
20260509084005 73 112 0.0 0.0 0.00 0.00 0.00 93 1008.9
20260509083713 74 100 0.0 0.0 0.00 0.00 0.00 93 1008.6
20260509083005 74 92 0.0 0.0 0.00 0.00 0.00 93 1008.2
20260509082505 74 136 0.0 0.0 0.00 0.00 0.00 93 1008.6
20260509082005 74 127 0.0 0.0 0.00 0.00 0.00 93 1008.2
20260509081505 74 125 0.0 0.0 0.00 0.00 0.00 93 1007.9
20260509081005 74 104 11.3 0.0 0.00 0.00 0.00 93 1007.9
20260509080505 74 82 3.5 0.0 0.00 0.00 0.00 93 1008.2
20260509080005 74 80 0.0 0.0 0.00 0.00 0.00 93 1008.6
20260509075505 74 101 0.0 0.0 0.00 0.00 0.00 92 1008.9
20260509075214 74 121 0.0 0.0 0.00 0.00 0.00 92 1009.3
20260509074505 74 115 0.0 0.0 0.00 0.00 0.00 92 1009.3
20260509074005 74 64 0.0 0.0 0.00 0.00 0.00 92 1009.3
20260509073505 74 109 0.0 0.0 0.00 0.00 0.00 92 1009.6
20260509073005 74 126 3.5 0.0 0.00 0.00 0.00 92 1009.6
20260509072505 74 127 0.0 0.0 0.00 0.00 0.00 92 1009.6
20260509072005 74 112 0.0 0.0 0.00 0.00 0.00 92 1009.3
20260509071505 74 107 0.0 0.0 0.00 0.00 0.00 92 1009.6
20260509071005 74 121 0.0 0.0 0.00 0.00 0.00 92 1009.6
20260509070505 74 101 0.0 0.0 0.00 0.00 0.00 92 1009.3
20260509070005 74 129 0.0 0.0 0.00 0.00 0.00 91 1009.6
20260509065505 74 42 3.5 0.0 0.00 0.00 0.00 91 1009.6
20260509065005 74 110 0.0 0.0 0.00 0.00 0.00 91 1009.9
20260509064712 74 142 0.0 0.0 0.00 0.00 0.00 91 1009.6
20260509064005 74 120 0.0 0.0 0.00 0.00 0.00 91 1009.9
20260509063505 74 99 0.0 0.0 0.00 0.00 0.00 91 1009.6
20260509063005 74 97 0.0 0.0 0.00 0.00 0.00 91 1009.3
20260509062505 74 64 3.5 0.0 0.00 0.00 0.00 91 1008.9
20260509062005 74 99 0.0 0.0 0.00 0.00 0.00 91 1009.3
20260509061505 74 97 0.0 0.0 0.00 0.00 0.00 91 1009.6
20260509061005 74 116 0.0 0.0 0.00 0.00 0.00 91 1009.6
20260509060505 74 83 0.0 0.0 0.00 0.00 0.00 90 1009.6
20260509060211 74 95 0.0 0.0 0.00 0.00 0.00 90 1009.9
20260509055505 74 62 3.5 0.0 0.00 0.15 0.00 90 1009.6
20260509055005 74 127 0.0 0.0 0.00 0.15 0.00 90 1009.6
20260509054712 74 87 0.0 0.0 0.00 0.15 0.00 90 1009.6
20260509054005 74 109 0.0 0.0 0.00 0.15 0.00 89 1009.6
20260509053712 74 76 3.5 0.0 0.00 0.15 0.00 89 1009.6
20260509053005 74 84 0.0 0.0 0.00 0.15 0.00 89 1009.9
20260509052505 74 79 7.8 0.0 0.00 0.15 0.00 89 1009.6
20260509052005 74 82 7.8 0.0 0.00 0.15 0.00 89 1009.6
20260509051505 75 89 3.5 0.0 0.00 0.15 0.00 89 1009.9
20260509051005 75 60 3.5 0.0 0.00 0.15 0.00 88 1010.6
20260509050505 75 182 11.3 0.0 0.00 0.15 0.00 88 1011.0
20260509045505 74 111 3.5 0.0 0.00 0.15 0.00 89 1010.3
20260509045004 74 157 3.5 0.0 0.00 0.15 0.00 89 1010.6
20260509044505 74 96 0.0 0.0 0.00 0.15 0.00 89 1010.6
20260509044005 74 172 3.5 0.0 0.00 0.15 0.00 88 1010.6
20260509043505 74 107 3.5 0.0 0.00 0.15 0.00 88 1010.6
20260509043005 74 165 3.5 0.0 0.00 0.15 0.00 88 1010.6
20260509042505 75 137 3.5 0.0 0.07 0.15 0.00 87 1010.6
20260509042212 75 96 0.0 0.0 0.07 0.15 0.00 86 1010.3
20260509041505 76 59 7.8 0.0 0.00 0.14 0.00 83 1009.9
20260509041005 76 79 3.5 0.0 0.00 0.14 0.00 81 1009.9
20260509040504 77 79 3.5 0.0 0.00 0.14 0.00 80 1009.9
20260509040005 77 88 3.5 0.0 0.00 0.14 0.00 80 1009.9
20260509035505 77 144 0.0 0.0 0.00 0.14 0.00 79 1009.9
20260509035005 77 111 3.5 0.0 0.00 0.14 0.00 79 1009.9
20260509034505 77 86 7.8 0.0 0.00 0.14 0.00 79 1009.9
20260509034005 77 115 3.5 0.0 0.00 0.14 0.00 79 1009.9
20260509033505 77 156 3.5 0.0 0.00 0.14 0.00 79 1009.6
20260509033004 77 80 0.0 0.0 0.00 0.14 0.00 79 1009.3
20260509032505 77 104 7.8 0.0 0.00 0.14 0.00 78 1008.9
20260509032005 77 75 0.0 0.0 0.00 0.14 0.00 78 1009.3
20260509031505 77 56 7.8 0.0 0.00 0.14 0.00 79 1009.3
20260509031005 77 90 3.5 0.0 0.00 0.14 0.00 80 1008.9
20260509030505 77 87 3.5 0.0 0.00 0.14 0.00 79 1009.3
20260509030005 77 109 15.6 0.0 0.00 0.14 0.00 79 1008.9
20260509025505 77 75 7.8 0.0 0.00 0.14 0.00 80 1009.3
20260509025005 78 57 11.3 0.0 0.00 0.14 0.00 79 1008.9
20260509024505 78 46 11.3 0.0 0.00 0.14 0.00 79 1008.9
20260509024005 78 67 7.8 0.0 0.00 0.14 0.00 79 1008.9
20260509023505 78 92 7.8 0.0 0.00 0.14 0.00 79 1008.9
20260509023005 78 62 0.0 0.0 0.00 0.14 0.00 79 1008.9
20260509022505 78 74 3.5 0.0 0.00 0.14 0.00 79 1008.9
20260509022005 78 96 7.8 0.0 0.00 0.14 0.00 79 1008.9
20260509021505 78 79 0.0 0.0 0.00 0.14 0.00 79 1008.6
20260509021005 79 84 0.0 0.0 0.00 0.14 0.00 79 1008.6
20260509020712 79 63 15.6 0.0 0.00 0.14 0.00 78 1008.6
20260509020005 79 59 7.8 0.0 0.00 0.14 0.00 79 1008.6
20260509015712 79 72 3.5 0.0 0.00 0.14 0.00 79 1008.6
20260509015005 79 93 3.5 0.0 0.00 0.14 0.00 79 1008.2
20260509014505 79 59 7.8 0.0 0.00 0.14 0.00 79 1008.2
20260509014005 79 67 7.8 0.0 0.00 0.14 0.00 79 1007.9
20260509013505 79 81 11.3 0.0 0.00 0.14 0.00 79 1007.9
20260509013005 79 92 11.3 0.0 0.00 0.14 0.00 78 1007.9
20260509012505 80 34 3.5 0.0 0.00 0.14 0.00 78 1007.9
20260509012005 80 63 15.6 0.0 0.00 0.14 0.00 78 1007.6
20260509011505 80 78 3.5 0.0 0.00 0.14 0.00 78 1007.2
20260509011005 80 53 3.5 0.0 0.00 0.14 0.00 77 1007.2
20260509010505 80 9 3.5 0.0 0.00 0.14 0.00 77 1007.2
20260509010213 80 104 20.0 0.0 0.00 0.14 0.00 77 1006.9
20260509005505 80 47 3.5 0.0 0.00 0.14 0.00 77 1006.9
20260509005005 80 60 7.8 0.0 0.00 0.14 0.00 76 1007.2
20260509004505 80 56 0.0 0.0 0.00 0.14 0.00 76 1007.2
20260509004004 81 80 0.0 0.0 0.00 0.14 0.00 76 1007.2
20260509003505 81 30 0.0 0.0 0.00 0.14 0.00 76 1007.2
20260509003005 81 172 11.3 0.0 0.00 0.14 0.00 75 1007.2
20260509002712 81 131 7.8 0.0 0.00 0.14 0.00 75 1006.9
20260509002005 81 33 7.8 0.0 0.00 0.14 0.00 74 1006.9
20260509001712 81 89 7.8 0.0 0.00 0.14 0.00 74 1007.2
20260509001005 81 343 7.8 0.0 0.00 0.14 0.00 75 1007.2
20260509000712 81 93 7.8 0.0 0.00 0.14 0.00 75 1006.9
20260509000005 81 75 3.5 0.0 0.00 0.14 0.00 74 1007.2
20260508235505 81 96 20.0 0.0 0.00 0.14 0.00 74 1007.2
20260508235005 81 43 3.5 0.0 0.00 0.14 0.00 73 1007.2
20260508234505 82 60 7.8 0.0 0.00 0.14 0.00 73 1007.2
20260508234004 82 65 3.5 0.0 0.00 0.14 0.00 71 1007.2
20260508233712 83 106 11.3 0.0 0.00 0.14 0.00 70 1007.6
20260508233005 83 17 3.5 0.0 0.00 0.14 0.00 69 1007.2
20260508232505 83 79 0.0 0.0 0.00 0.14 0.00 69 1007.2
20260508232212 83 64 3.5 0.0 0.00 0.14 0.00 69 1007.2
20260508231505 82 342 3.5 0.0 0.00 0.14 0.00 71 1007.2
20260508231005 82 73 0.0 0.0 0.00 0.14 0.00 71 1007.6
20260508230713 82 53 3.5 0.0 0.00 0.14 0.00 71 1007.2
20260508230005 82 50 0.0 0.0 0.00 0.14 0.00 72 1007.6
20260508225711 82 79 0.0 0.0 0.00 0.14 0.00 72 1007.2
20260508225005 82 16 3.5 0.0 0.00 0.14 0.00 72 1007.2
20260508224505 82 65 3.5 0.0 0.00 0.14 0.00 71 1006.9
20260508224005 83 327 7.8 0.0 0.00 0.14 0.00 69 1007.2
20260508223505 83 57 0.0 0.0 0.00 0.14 0.00 70 1007.2
20260508223005 83 309 7.8 0.0 0.00 0.14 0.00 70 1007.2
20260508222505 82 73 0.0 0.0 0.00 0.14 0.00 70 1007.6
20260508222005 82 69 0.0 0.0 0.00 0.14 0.00 71 1007.9
20260508221505 82 57 0.0 0.0 0.00 0.14 0.00 71 1007.6
20260508221005 82 29 3.5 0.0 0.00 0.14 0.00 71 1007.6
20260508220505 82 81 3.5 0.0 0.00 0.14 0.00 71 1007.6
20260508220212 82 77 0.0 0.0 0.00 0.14 0.00 71 1007.9
20260508215505 82 47 0.0 0.0 0.00 0.14 0.00 71 1007.9
20260508215005 82 59 0.0 0.0 0.00 0.14 0.00 71 1007.9
20260508214505 82 58 3.5 0.0 0.00 0.14 0.00 70 1008.2
20260508214005 83 60 3.5 0.0 0.00 0.14 0.00 69 1008.2
20260508213505 83 63 0.0 0.0 0.00 0.14 0.00 70 1008.2
20260508213005 83 41 3.5 0.0 0.00 0.14 0.00 70 1008.6
20260508212505 83 97 0.0 0.0 0.00 0.14 0.00 69 1008.6
20260508212005 83 91 3.5 0.0 0.00 0.14 0.00 67 1008.9
20260508211505 82 1 3.5 0.0 0.00 0.14 0.00 70 1008.6
20260508211005 82 70 3.5 0.0 0.00 0.14 0.00 70 1008.9
20260508210504 83 97 3.5 0.0 0.00 0.14 0.00 68 1008.9
20260508210214 83 16 0.0 0.0 0.00 0.14 0.00 67 1008.9
20260508205505 85 93 3.5 0.0 0.00 0.14 0.00 63 1008.6
20260508205005 84 70 11.3 0.0 0.00 0.14 0.00 65 1008.9
20260508204505 83 84 0.0 0.0 0.00 0.14 0.00 68 1008.9
20260508204005 83 164 7.8 0.0 0.00 0.14 0.00 67 1009.3
20260508203505 83 81 3.5 0.0 0.00 0.14 0.00 68 1009.3
20260508203005 83 88 0.0 0.0 0.00 0.14 0.00 69 1009.3
20260508202505 83 146 7.8 0.0 0.00 0.14 0.00 70 1009.3
20260508202005 83 72 3.5 0.0 0.00 0.14 0.00 69 1009.3
20260508201505 83 80 3.5 0.0 0.00 0.14 0.00 68 1009.6
20260508201005 83 42 3.5 0.0 0.00 0.14 0.00 70 1009.6
20260508200505 84 77 0.0 0.0 0.00 0.14 0.00 67 1009.6
20260508200211 83 58 0.0 0.0 0.00 0.14 0.00 71 1009.6
20260508195505 83 140 11.3 0.0 0.00 0.14 0.00 69 1009.6
20260508195005 82 72 7.8 0.0 0.00 0.14 0.00 68 1009.9
20260508194712 81 7 3.5 0.0 0.00 0.14 0.00 74 1009.9
20260508194005 83 15 3.5 0.0 0.00 0.14 0.00 71 1009.9
20260508193505 83 9 0.0 0.0 0.00 0.14 0.00 72 1010.3
20260508193005 82 68 7.8 0.0 0.00 0.14 0.00 71 1010.3
20260508192505 82 249 7.8 0.0 0.00 0.14 0.00 72 1010.3
20260508192004 82 65 3.5 0.0 0.00 0.14 0.00 72 1010.3
20260508191505 81 42 0.0 0.0 0.00 0.14 0.00 74 1010.6
20260508191005 81 326 3.5 0.0 0.00 0.14 0.00 73 1010.6
20260508190505 81 58 7.8 0.0 0.00 0.14 0.00 73 1010.6
20260508190213 80 318 3.5 0.0 0.00 0.14 0.00 75 1010.6
20260508185504 80 13 7.8 0.0 0.00 0.14 0.00 76 1011.0
20260508185005 80 242 11.3 0.0 0.00 0.14 0.00 77 1011.0
20260508184505 79 337 3.5 0.0 0.00 0.14 0.00 78 1011.3
20260508184005 79 14 3.5 0.0 0.00 0.14 0.00 79 1011.0
20260508183505 78 314 7.8 0.0 0.00 0.14 0.00 79 1011.3
20260508183005 77 322 11.3 0.0 0.00 0.14 0.00 81 1011.3
20260508182505 77 39 3.5 0.0 0.00 0.14 0.00 81 1011.3
20260508182005 77 225 3.5 0.0 0.00 0.14 0.00 82 1011.6
20260508181505 77 340 11.3 0.0 0.00 0.14 0.00 82 1011.6
20260508181212 77 22 7.8 0.0 0.00 0.14 0.00 83 1011.3
20260508180505 75 345 3.5 0.0 0.00 0.14 0.00 86 1011.6
20260508180005 75 345 3.5 0.0 0.00 0.14 0.00 85 1011.3